Temperature
20 20 20 20 18 18 20 21 22 22 22 22 21 20 19 18 19 18 17 18 18 18 18 18 18 18 18 18 18 18 18 18 18 18 18 18 18 18 18 18 18 18 18 18 18 18 18 18 18
21 21 20 20 18 19 20 21 21 22 22 22 21 20 19 18 18 18 17 18 18 18 18 18 17 17 17 17 17 17 17 17 17 17 17 17 17 17 17 17 17 17 17 17 17 18 17 18 17
21 21 20 18 19 19 20 21 22 23 23 22 21 20 19 18 18 18 18 18 18 18 18 17 17 17 17 17 17 17 17 17 17 17 17 17 17 17 17 17 17 17 17 17 17 17 17 17 17
21 21 20 18 20 21 21 22 22 22 22 22 20 19 19 19 19 18 18 18 18 18 18 17 17 17 17 17 17 17 17 17 17 17 17 17 17 17 17 17 17 17 17 17 17 17 17 17 17
21 21 19 19 21 22 22 23 23 22 22 21 20 18 18 19 18 18 18 18 18 18 17 17 17 17 17 17 17 17 17 17 17 17 16 16 16 17 17 17 17 17 17 17 17 17 17 17 17
21 19 19 19 21 22 22 23 23 21 21 20 20 18 18 18 18 18 18 18 18 18 18 17 17 17 17 17 17 17 17 17 16 16 16 16 16 16 16 16 16 16 17 17 17 17 17 16 16
21 18 19 20 20 21 23 23 22 21 21 21 20 18 18 18 18 18 18 18 18 18 18 17 17 17 17 17 17 17 17 16 16 16 16 16 16 16 16 16 16 16 16 16 16 17 16 16 16
22 18 20 20 20 21 23 23 23 22 22 21 20 19 18 18 18 18 18 18 18 18 17 17 17 17 17 17 17 16 16 16 16 16 16 16 16 16 16 16 16 16 16 16 16 16 16 16 16
22 18 19 20 21 21 23 23 23 23 22 21 21 20 19 19 18 18 18 18 18 17 17 17 17 17 17 17 17 16 16 16 16 16 16 16 16 16 16 16 16 16 16 16 16 16 16 16 16
22 19 21 22 21 22 23 23 23 22 21 20 20 20 19 19 18 18 18 18 18 17 17 17 17 17 17 17 17 16 16 16 16 16 16 16 16 16 16 16 16 16 16 16 16 16 16 16 16
22 20 21 22 23 23 23 23 23 21 20 20 20 19 19 19 19 18 18 18 18 18 17 17 17 17 17 17 17 16 16 16 16 16 16 16 16 16 16 16 16 16 16 16 16 16 16 16 16
22 22 23 23 24 23 23 23 22 22 22 21 21 20 19 19 19 19 18 18 18 18 18 17 17 17 17 17 17 16 16 16 16 16 16 16 16 16 16 16 16 16 16 16 16 16 16 16 16
22 22 23 24 24 23 23 23 22 22 22 21 21 20 20 19 19 19 19 19 18 18 18 18 17 17 17 17 17 16 16 16 16 16 16 16 16 16 16 16 16 16 16 16 16 16 16 16 15
23 23 23 23 24 24 23 22 22 21 21 21 20 20 20 20 19 19 19 19 18 18 18 18 18 17 17 17 17 17 16 16 16 16 16 16 16 16 16 16 16 16 16 16 16 16 16 16 15
23 22 22 22 23 23 23 21 21 22 21 21 20 20 20 20 20 20 19 19 19 18 18 18 17 17 17 17 17 16 16 16 16 16 16 16 16 16 16 16 16 16 16 16 16 16 16 15 15
22 21 20 21 22 23 22 20 21 22 21 21 21 20 20 20 20 20 20 19 19 18 18 18 17 17 17 17 17 16 16 16 16 16 16 16 16 16 16 16 16 16 16 16 16 16 16 15 15
20 19 20 21 22 22 21 20 20 22 21 21 21 21 20 20 20 20 20 19 19 18 18 18 17 17 17 17 17 16 16 16 16 16 16 16 16 16 16 16 16 16 16 16 15 15 15 15 15
19 20 20 21 22 22 21 20 20 21 21 21 21 20 20 20 20 20 20 19 19 18 18 18 17 17 17 17 17 16 16 16 16 16 16 16 16 16 16 16 16 16 16 16 15 15 15 15 15
20 20 20 21 22 22 20 20 20 21 21 20 20 20 20 20 20 20 20 19 19 18 18 18 18 17 17 17 17 16 16 16 16 16 16 16 16 16 16 16 16 15 15 15 15 15 15 15 15
21 20 20 21 22 22 20 20 20 20 20 21 20 20 20 20 20 20 20 19 19 18 18 18 18 17 17 17 17 16 16 16 16 16 16 16 16 16 16 16 16 15 15 15 15 15 15 15 15
21 20 20 21 21 21 20 19 19 20 21 21 21 21 21 20 20 20 19 19 19 18 18 18 18 17 17 17 16 16 16 16 16 16 16 16 16 16 16 16 15 15 15 15 15 15 15 15 15
20 21 21 21 20 18 20 17 18 19 19 19 20 20 20 20 20 20 20 19 19 19 18 18 18 17 17 17 16 16 16 16 16 16 16 16 16 16 16 15 15 15 15 15 15 15 15 15 15
21 21 21 21 19 18 18 18 17 18 19 19 19 20 20 20 20 20 20 20 19 19 18 18 17 17 17 17 16 16 16 16 16 16 15 16 16 16 15 15 15 15 15 15 15 15 15 15 15
21 20 19 17 17 17 18 18 17 17 19 19 19 20 21 20 20 20 20 19 19 18 18 18 17 17 17 17 16 16 16 16 16 16 15 15 15 16 15 15 15 15 15 15 15 15 15 15 15
20 17 17 17 16 17 18 18 18 19 19 20 20 20 21 20 20 19 19 19 19 18 18 17 17 17 17 17 16 16 16 16 16 16 16 16 15 16 15 15 15 15 15 15 15 15 15 15 15
19 18 16 17 16 17 18 18 18 20 20 21 21 21 21 20 20 20 19 19 19 18 18 18 17 17 17 16 16 16 16 16 16 16 16 16 16 16 15 15 15 15 15 15 15 15 15 15 15
19 18 18 17 17 17 17 18 19 20 19 20 20 20 20 20 20 20 19 19 19 18 18 18 17 17 16 16 16 16 16 16 16 16 16 16 16 16 15 15 15 15 15 15 15 15 15 15 15
20 18 16 16 16 16 17 18 17 19 19 19 19 19 20 20 19 19 19 19 19 18 18 18 17 17 17 16 16 16 16 16 16 16 16 16 16 16 16 15 15 15 15 15 15 15 15 15 15
19 19 17 15 16 16 16 17 19 19 19 18 19 20 20 19 19 19 19 19 18 18 18 17 17 17 17 16 16 16 16 16 16 16 16 16 16 16 15 16 15 15 15 15 15 15 15 15 15
20 19 17 16 16 15 15 16 19 19 19 19 19 19 20 20 19 19 19 18 18 18 18 17 17 17 17 17 16 16 16 16 16 16 16 16 16 16 16 15 15 15 15 15 15 15 15 15 15
Wind_Speed
3 1 3 3 4 5 3 2 1 3 4 5 9 10 8 6 4 5 2 6 9 7 7 8 9 9 9 9 10 10 10 10 10 11 11 11 11 11 11 11 10 10 9 9 9 8 8 8 8
1 1 3 3 4 4 2 0 3 4 6 8 8 8 7 6 4 5 4 8 9 8 7 8 9 9 9 10 10 10 10 11 11 10 10 10 10 10 10 10 10 9 9 8 8 8 8 8 8
1 1 3 3 3 4 3 2 3 5 7 6 5 6 5 4 4 4 6 9 8 7 8 9 10 10 10 10 10 10 10 10 10 10 10 10 10 10 10 10 9 9 8 8 8 7 7 7 7
2 4 4 4 4 3 5 4 5 6 6 6 6 6 4 2 4 6 10 10 9 7 8 10 10 10 10 10 10 10 10 10 10 10 9 10 10 10 10 10 9 9 8 7 7 7 7 8 8
3 4 4 3 2 1 2 4 6 7 4 5 7 6 4 3 8 12 11 10 10 7 7 9 10 10 10 10 10 10 10 10 10 10 9 9 10 10 10 9 9 8 7 7 6 6 7 8 8
4 4 4 2 1 1 2 4 7 8 6 6 7 6 3 3 8 10 10 8 9 8 7 9 10 10 10 10 10 10 10 10 10 10 9 9 9 9 9 8 8 7 7 6 6 6 6 7 8
4 4 2 2 2 2 3 4 7 6 5 4 6 6 3 3 6 9 9 8 7 8 7 7 8 9 10 10 10 10 10 10 10 9 8 8 9 9 8 8 7 7 6 6 5 5 5 6 7
5 4 2 1 3 1 1 3 5 6 5 5 5 7 5 5 7 9 9 8 7 6 5 5 5 6 7 8 9 9 9 8 8 8 7 7 7 7 7 6 6 6 5 5 4 5 5 6 8
4 4 0 2 4 2 2 4 2 4 6 4 3 5 7 9 9 9 7 6 6 6 4 4 4 5 5 5 7 7 7 7 7 6 5 5 4 4 4 4 4 4 4 4 5 5 6 8 9
4 3 2 2 4 4 3 4 4 4 6 4 6 7 9 10 9 9 8 8 7 7 5 4 5 5 6 5 5 4 4 4 4 4 4 3 3 3 3 3 3 4 5 5 6 6 6 8 8
3 3 1 1 2 4 3 2 3 6 3 6 10 12 10 9 8 8 8 8 8 7 7 6 5 6 5 3 4 3 2 3 2 2 3 4 3 2 2 2 3 4 5 5 5 5 5 6 6
2 2 3 2 1 2 2 2 3 4 6 9 13 13 11 10 9 8 9 8 7 7 6 6 6 5 5 5 3 3 2 2 2 3 4 5 3 2 2 2 2 3 4 4 5 5 6 7 8
1 2 2 2 2 2 2 2 4 3 7 10 11 11 11 10 9 8 8 8 8 8 7 7 7 6 4 4 3 3 2 2 2 3 4 6 4 2 2 2 2 3 4 4 4 4 5 6 7
2 1 1 2 2 1 2 2 4 5 10 11 11 10 10 10 10 9 8 8 8 8 8 6 7 6 5 3 3 3 4 4 4 4 5 7 6 4 3 3 3 4 5 5 5 5 5 5 6
1 2 3 2 3 3 3 1 3 8 11 11 10 9 9 9 10 11 11 9 9 9 8 7 7 6 6 4 3 4 4 5 3 3 5 6 7 6 5 3 3 4 6 7 7 6 6 5 5
2 2 2 4 4 3 5 4 5 8 11 10 9 8 9 9 10 10 10 9 9 9 8 7 7 7 6 5 4 3 4 5 3 4 6 6 6 7 6 3 3 5 6 6 4 4 5 5 5
2 2 4 5 4 4 5 5 6 7 10 10 9 9 9 9 9 9 10 11 10 9 9 7 7 7 6 5 4 4 5 4 4 5 5 5 6 7 6 4 4 6 5 4 4 4 4 4 4
3 3 3 4 3 4 5 5 6 7 9 10 10 10 10 11 11 11 10 11 10 8 9 8 7 7 6 5 4 3 4 3 4 4 4 5 6 7 7 5 5 6 4 4 4 4 4 3 3
4 2 3 4 4 3 4 5 6 7 7 8 9 10 11 11 10 10 10 11 10 8 9 8 7 5 5 4 4 3 3 2 2 2 5 6 6 7 6 4 4 4 4 4 4 4 4 3 3
4 3 4 4 3 2 3 4 5 7 9 11 12 12 12 10 8 9 10 10 10 10 9 8 8 6 5 4 4 3 3 2 1 1 3 5 6 6 6 5 4 4 4 4 4 4 3 2 2
3 4 4 4 3 2 2 5 5 5 5 6 9 10 11 14 14 13 12 11 11 10 10 10 8 7 6 5 4 4 4 3 2 2 1 2 5 6 6 5 4 4 4 4 3 3 4 2 1
4 4 3 2 1 3 1 3 7 5 4 6 8 8 10 11 11 12 13 12 12 11 10 10 9 7 6 7 7 6 4 3 2 2 1 1 3 5 6 5 5 4 3 4 3 3 3 3 1
5 4 2 2 1 2 1 2 7 4 5 7 8 9 11 12 12 13 13 12 11 10 10 10 9 7 6 6 7 7 4 3 2 2 3 2 2 3 5 5 5 4 3 3 3 3 3 2 2
3 3 5 4 3 2 5 4 5 4 7 6 7 8 10 11 11 11 10 9 8 8 9 9 10 7 6 7 7 7 7 5 5 4 3 1 1 1 2 5 4 4 3 3 3 3 4 3 3
4 5 3 4 3 4 2 3 6 7 7 7 8 8 9 10 11 11 11 10 10 10 10 10 10 8 7 7 6 7 7 7 7 5 4 3 1 1 1 3 3 3 3 4 3 4 3 3 4
4 8 6 4 4 4 3 4 6 6 4 4 6 7 8 9 10 12 13 12 12 12 11 11 11 8 7 7 6 5 6 5 4 5 5 4 3 2 2 3 3 3 4 5 4 3 2 3 3
4 4 7 6 2 2 4 4 5 3 1 1 4 5 7 10 11 12 11 12 13 12 11 12 11 9 8 7 6 5 6 6 5 5 4 4 3 3 3 3 3 3 3 4 5 3 3 3 3
5 6 5 4 3 3 4 4 4 4 3 2 4 5 6 8 9 10 10 12 12 11 10 10 10 10 8 7 6 6 6 6 6 5 5 4 4 4 5 4 4 3 3 3 4 3 3 4 3
3 3 4 4 4 4 3 6 6 7 6 5 5 6 7 9 10 10 10 10 10 10 9 9 9 8 7 7 6 6 6 5 5 5 5 5 4 5 5 4 4 3 3 3 4 3 4 4 3
6 6 7 5 3 4 3 7 6 6 6 6 5 5 6 8 9 9 10 9 9 10 10 10 9 9 8 7 6 6 6 5 5 5 5 5 5 4 5 4 4 4 3 3 4 4 4 4 4
Wind_Direction
316 346 95 63 54 56 53 357 103 77 59 60 76 82 82 61 76 124 175 130 132 134 130 124 124 119 114 111 108 107 108 107 106 101 99 99 98 98 96 93 91 88 85 83 79 73 73 72 68
350 58 78 60 78 77 51 273 83 90 125 114 82 77 78 76 83 110 113 131 131 129 126 124 124 118 115 112 108 108 111 113 111 105 103 101 99 99 98 96 92 88 84 82 79 73 68 66 63
322 154 88 69 92 136 147 191 114 94 99 94 76 54 69 99 114 120 139 135 127 122 125 126 123 118 114 110 108 108 110 112 111 108 104 101 98 99 101 99 96 91 87 83 78 75 68 63 58
62 49 55 71 93 161 160 163 120 94 67 62 95 69 54 57 121 128 135 130 124 121 125 128 125 120 115 111 110 108 110 112 113 110 105 103 102 103 103 100 97 93 88 85 81 75 67 61 60
75 73 58 67 88 114 125 127 107 94 80 72 92 90 69 29 106 121 129 130 128 127 128 129 129 126 122 119 115 111 111 114 114 113 110 107 103 101 100 99 97 95 91 87 84 78 70 65 61
53 66 77 90 73 47 85 105 98 90 103 104 102 109 108 107 117 131 132 133 135 137 133 132 132 131 128 125 123 118 116 119 118 117 113 110 109 105 102 101 99 98 94 90 85 78 74 71 64
99 84 109 144 117 65 107 100 100 109 115 126 124 108 135 146 140 138 134 131 130 134 133 131 133 134 133 131 130 127 125 124 122 122 122 120 116 110 107 108 105 99 96 92 82 70 69 69 64
128 97 59 123 137 148 147 104 112 114 110 119 117 132 164 182 146 133 130 129 128 131 137 137 138 135 135 137 138 137 135 134 129 127 127 124 119 114 114 113 112 103 94 83 77 71 64 66 70
97 77 98 193 162 182 141 100 82 78 93 79 96 143 159 150 132 125 124 123 135 145 154 157 154 149 150 154 147 145 146 145 138 133 127 117 113 117 120 121 120 102 89 74 71 68 66 65 68
93 117 229 207 167 165 145 124 132 88 84 80 86 107 132 138 137 139 147 149 153 160 173 177 175 175 170 167 149 143 144 145 139 137 137 133 133 144 134 126 108 90 81 73 68 64 60 59 63
146 168 182 78 153 138 126 121 109 124 130 161 153 153 152 148 151 155 158 158 161 164 167 175 182 181 176 168 164 161 153 154 159 166 152 140 132 135 126 101 69 65 64 56 55 53 56 68 77
143 181 166 160 109 114 129 123 104 147 182 171 159 158 156 157 166 167 168 165 156 152 159 166 171 166 169 161 164 164 152 151 163 180 164 142 132 127 127 100 85 77 75 66 60 68 70 78 88
144 200 172 168 132 138 120 141 130 143 150 150 152 155 163 166 172 176 171 163 153 153 157 162 161 156 149 145 153 145 149 153 149 144 146 144 137 138 131 113 112 105 96 88 79 80 82 82 84
197 180 225 213 211 196 155 176 120 166 152 151 157 166 171 169 167 166 163 162 160 156 156 159 150 145 133 132 136 135 141 130 116 113 127 136 137 134 116 103 103 102 104 101 95 90 87 81 84
135 63 337 248 208 212 141 44 185 177 159 159 166 172 170 169 168 170 172 166 164 157 152 150 141 132 125 122 119 122 130 115 96 93 109 122 126 125 117 108 98 100 103 98 91 79 79 81 80
47 62 280 266 193 193 137 227 237 181 164 171 175 173 170 171 175 177 170 162 161 155 149 147 138 128 122 119 110 113 120 109 93 89 98 114 119 119 110 102 99 109 100 95 91 84 81 74 76
23 206 237 272 221 180 158 214 232 191 172 180 182 180 177 170 173 178 171 162 162 157 147 142 135 133 132 125 114 110 106 98 91 85 90 111 118 118 115 106 111 112 98 90 99 86 94 91 88
230 229 244 243 244 171 178 220 218 200 181 185 186 184 183 179 184 180 172 164 161 156 146 144 139 136 128 114 99 89 80 74 79 84 89 100 108 114 114 109 106 106 96 87 92 92 79 90 96
208 222 259 260 241 186 210 234 226 205 192 189 190 190 190 191 189 175 169 160 155 154 149 148 145 141 132 123 121 118 116 102 77 79 89 91 102 109 106 105 101 103 106 110 111 100 83 72 86
230 249 277 291 276 198 219 256 240 207 205 198 194 194 192 187 176 172 168 164 163 163 160 155 152 149 144 140 142 142 139 129 122 82 78 88 99 103 110 109 113 112 110 102 97 103 97 75 86
237 218 237 251 320 11 72 320 292 258 228 208 200 192 185 183 180 175 171 171 167 168 169 165 159 150 145 136 116 103 83 70 57 55 45 59 101 107 108 117 116 116 119 124 120 119 118 120 22
242 238 226 230 62 290 157 270 284 264 255 215 204 192 184 182 180 176 175 175 173 174 170 159 155 151 145 134 130 135 136 145 171 162 130 64 93 101 104 109 112 117 118 124 136 125 125 124 93
217 239 241 250 190 297 278 188 283 287 252 236 212 198 191 185 178 177 176 178 173 166 162 156 152 148 145 139 141 139 140 151 146 122 110 75 50 85 103 114 113 112 116 124 120 113 113 122 130
178 33 25 41 78 280 241 182 274 246 227 227 216 204 192 183 180 177 172 163 157 153 150 152 152 153 154 149 148 148 154 152 142 139 136 117 61 46 92 113 110 113 118 125 129 124 122 115 109
96 88 35 1 358 257 256 175 244 250 231 205 202 200 190 177 173 168 163 164 160 159 154 154 158 162 168 159 160 162 163 160 161 163 164 159 144 109 117 114 117 121 128 127 120 114 114 117 118
179 143 155 192 229 277 315 220 250 261 242 195 180 178 175 175 172 172 172 168 166 165 162 161 163 165 172 170 171 166 162 158 162 170 169 174 176 176 151 132 130 127 124 120 111 104 109 113 118
159 182 174 151 216 264 280 287 312 333 354 141 149 151 170 178 177 175 171 169 167 166 170 169 164 166 176 176 168 165 160 153 156 161 162 165 168 163 147 135 122 120 117 117 114 105 111 116 115
163 154 102 127 172 250 282 267 243 243 234 199 179 177 181 177 173 173 172 170 171 169 172 168 167 173 179 177 177 173 166 158 153 148 153 157 159 147 139 134 123 113 113 120 113 110 106 108 105
152 140 130 144 162 167 238 265 232 207 204 195 201 197 186 180 175 177 174 171 169 164 167 168 171 172 176 175 171 162 163 157 150 155 162 162 157 150 148 150 138 129 125 120 116 117 114 108 100
174 174 150 159 217 181 192 265 270 213 200 187 195 198 196 182 175 174 168 165 165 168 171 172 174 175 178 172 165 163 165 156 156 162 163 160 160 156 151 146 135 134 129 123 127 128 118 119 119
Height
1522 1522 1521 1522 1524 1532 1534 1528 1522 1520 1520 1521 1520 1521 1525 1529 1532 1538 1535 1534 1534 1534 1534 1533 1533 1533 1533 1533 1532 1532 1532 1533 1533 1533 1533 1533 1534 1534 1534 1534 1534 1534 1535 1535 1535 1535 1535 1534 1534
1522 1522 1523 1522 1530 1542 1537 1526 1523 1520 1521 1521 1522 1524 1526 1530 1531 1533 1533 1534 1535 1535 1534 1534 1533 1533 1533 1533 1533 1533 1533 1533 1533 1533 1533 1534 1534 1534 1534 1534 1535 1535 1535 1535 1535 1535 1535 1535 1535
1522 1522 1523 1524 1532 1538 1534 1525 1521 1520 1520 1520 1524 1526 1529 1531 1533 1533 1534 1535 1535 1535 1535 1534 1534 1534 1533 1533 1533 1533 1533 1533 1533 1533 1534 1534 1534 1534 1534 1535 1535 1535 1535 1535 1535 1535 1535 1536 1535
1522 1523 1524 1529 1532 1528 1524 1522 1520 1520 1522 1523 1525 1529 1531 1533 1533 1534 1534 1536 1536 1535 1535 1535 1534 1534 1534 1534 1533 1533 1533 1533 1533 1534 1534 1534 1534 1534 1535 1535 1535 1536 1536 1536 1536 1536 1536 1536 1536
1522 1523 1528 1533 1530 1524 1521 1520 1519 1521 1523 1525 1525 1530 1533 1534 1534 1534 1535 1536 1536 1536 1536 1535 1535 1535 1534 1534 1534 1534 1534 1534 1534 1534 1534 1535 1535 1535 1535 1536 1536 1536 1536 1536 1536 1537 1537 1537 1537
1523 1524 1535 1539 1531 1524 1522 1521 1520 1522 1525 1527 1528 1531 1534 1535 1535 1536 1536 1537 1537 1537 1536 1536 1536 1535 1535 1535 1535 1535 1535 1535 1535 1535 1535 1536 1536 1536 1536 1536 1537 1537 1537 1537 1537 1537 1537 1537 1537
1524 1527 1534 1534 1533 1527 1523 1521 1521 1523 1525 1527 1528 1531 1534 1535 1536 1536 1537 1538 1538 1537 1537 1537 1536 1536 1536 1536 1536 1536 1536 1536 1536 1536 1537 1537 1537 1537 1537 1537 1538 1538 1538 1538 1538 1538 1538 1538 1539
1523 1527 1532 1533 1532 1529 1523 1522 1522 1523 1525 1527 1528 1530 1533 1535 1535 1537 1538 1538 1538 1538 1538 1538 1537 1537 1537 1537 1537 1537 1537 1538 1538 1538 1538 1538 1539 1539 1539 1539 1539 1539 1539 1539 1539 1539 1540 1540 1540
1523 1531 1536 1531 1529 1527 1522 1522 1524 1524 1525 1527 1528 1529 1531 1533 1535 1537 1538 1538 1539 1539 1539 1538 1538 1538 1538 1538 1538 1539 1539 1539 1539 1540 1540 1540 1540 1540 1540 1541 1541 1541 1541 1541 1541 1541 1541 1541 1541
1523 1533 1529 1523 1522 1523 1522 1522 1523 1525 1526 1528 1529 1530 1532 1534 1536 1537 1537 1538 1538 1539 1539 1539 1539 1539 1539 1539 1540 1540 1540 1540 1541 1541 1541 1542 1542 1542 1542 1542 1543 1542 1542 1542 1542 1542 1542 1542 1542
1523 1526 1523 1521 1521 1521 1521 1522 1523 1525 1528 1528 1528 1530 1532 1534 1535 1536 1537 1538 1538 1539 1539 1540 1540 1540 1540 1541 1541 1541 1541 1542 1542 1542 1542 1543 1543 1543 1544 1544 1544 1544 1544 1544 1543 1544 1544 1544 1544
1522 1522 1521 1521 1521 1521 1521 1522 1523 1523 1525 1526 1527 1529 1531 1533 1535 1536 1537 1538 1538 1539 1539 1540 1541 1541 1541 1542 1542 1542 1542 1543 1543 1543 1543 1544 1544 1544 1545 1545 1545 1545 1545 1545 1545 1545 1545 1545 1545
1522 1522 1521 1520 1521 1521 1521 1522 1522 1523 1524 1526 1528 1529 1531 1532 1534 1535 1537 1537 1538 1539 1540 1540 1541 1542 1542 1542 1543 1543 1543 1544 1544 1544 1545 1545 1546 1546 1546 1546 1547 1547 1547 1547 1547 1546 1547 1547 1547
1521 1520 1520 1520 1520 1520 1521 1522 1522 1524 1525 1526 1528 1529 1530 1532 1533 1535 1536 1537 1538 1539 1540 1540 1541 1542 1542 1543 1543 1543 1544 1544 1545 1545 1546 1546 1547 1547 1547 1547 1548 1548 1548 1548 1548 1548 1548 1548 1548
1520 1521 1521 1520 1519 1520 1521 1524 1522 1522 1524 1526 1527 1529 1530 1531 1533 1534 1535 1536 1538 1539 1539 1540 1541 1542 1543 1543 1544 1544 1545 1545 1546 1546 1547 1547 1547 1548 1548 1548 1549 1549 1549 1549 1549 1549 1550 1550 1550
1520 1525 1530 1521 1518 1519 1524 1531 1522 1522 1523 1525 1526 1527 1529 1530 1532 1533 1534 1536 1537 1538 1539 1540 1541 1542 1543 1543 1544 1545 1545 1546 1546 1547 1547 1548 1548 1549 1549 1549 1549 1550 1550 1550 1550 1551 1551 1551 1551
1528 1534 1532 1524 1517 1517 1522 1527 1520 1521 1521 1523 1524 1526 1527 1529 1530 1532 1533 1535 1536 1538 1539 1540 1541 1542 1543 1544 1544 1545 1546 1547 1547 1547 1548 1548 1549 1549 1549 1550 1550 1551 1551 1551 1551 1552 1552 1552 1552
1535 1533 1530 1527 1518 1517 1521 1522 1518 1518 1519 1520 1522 1524 1525 1526 1528 1530 1532 1534 1535 1537 1539 1540 1541 1542 1543 1544 1545 1545 1546 1547 1547 1548 1548 1549 1549 1550 1550 1550 1551 1551 1552 1552 1552 1553 1553 1553 1554
1524 1528 1529 1523 1516 1518 1521 1520 1517 1516 1517 1519 1520 1521 1523 1524 1526 1528 1530 1532 1534 1536 1538 1539 1541 1542 1543 1544 1544 1545 1546 1547 1548 1548 1549 1549 1550 1550 1550 1550 1551 1551 1552 1552 1553 1553 1554 1554 1554
1522 1527 1527 1521 1514 1517 1520 1520 1515 1514 1514 1514 1516 1518 1520 1522 1524 1527 1529 1531 1533 1535 1537 1538 1540 1541 1542 1543 1544 1545 1546 1547 1548 1549 1549 1549 1550 1550 1550 1551 1551 1552 1552 1553 1554 1554 1554 1555 1555
1522 1525 1525 1523 1517 1516 1520 1525 1518 1513 1512 1512 1513 1514 1516 1518 1521 1524 1526 1529 1531 1533 1535 1537 1539 1540 1542 1543 1544 1545 1546 1547 1548 1549 1549 1550 1550 1550 1551 1551 1552 1552 1553 1553 1554 1554 1555 1555 1555
1524 1516 1517 1519 1526 1532 1526 1540 1524 1515 1512 1510 1511 1512 1513 1516 1518 1521 1524 1526 1528 1531 1534 1536 1538 1540 1541 1542 1544 1545 1546 1547 1548 1548 1549 1550 1550 1550 1551 1552 1552 1553 1553 1553 1554 1555 1555 1556 1556
1516 1513 1515 1518 1525 1532 1529 1537 1529 1516 1514 1510 1507 1508 1510 1512 1515 1518 1521 1524 1527 1529 1532 1534 1537 1539 1540 1542 1543 1545 1546 1547 1548 1549 1549 1550 1550 1550 1551 1552 1552 1553 1553 1554 1554 1555 1555 1556 1556
1510 1515 1518 1525 1532 1542 1530 1536 1532 1519 1511 1506 1504 1505 1507 1509 1513 1516 1519 1522 1525 1528 1531 1533 1535 1538 1540 1541 1543 1544 1546 1547 1548 1548 1549 1550 1550 1551 1551 1552 1553 1553 1554 1554 1555 1555 1556 1556 1556
1513 1529 1544 1545 1550 1544 1527 1530 1526 1507 1502 1501 1501 1502 1504 1507 1510 1513 1516 1520 1523 1526 1529 1532 1534 1536 1539 1541 1542 1544 1546 1547 1548 1548 1549 1550 1551 1551 1552 1552 1553 1553 1554 1555 1555 1556 1556 1556 1556
1515 1524 1544 1552 1552 1543 1527 1529 1516 1502 1499 1498 1498 1500 1502 1505 1508 1510 1513 1517 1520 1524 1527 1530 1532 1535 1538 1540 1542 1543 1545 1546 1548 1549 1549 1550 1551 1551 1552 1553 1553 1554 1554 1555 1556 1556 1556 1557 1557
1515 1521 1522 1535 1538 1543 1534 1522 1510 1501 1499 1498 1499 1500 1502 1503 1506 1509 1512 1515 1518 1522 1525 1528 1530 1533 1536 1539 1541 1542 1544 1546 1547 1549 1549 1550 1551 1552 1553 1553 1554 1554 1555 1556 1556 1556 1557 1557 1557
1507 1513 1526 1535 1545 1549 1537 1528 1522 1508 1503 1500 1499 1500 1501 1502 1504 1507 1510 1513 1517 1520 1523 1527 1530 1532 1535 1537 1539 1541 1544 1546 1547 1548 1549 1550 1551 1552 1553 1554 1554 1555 1556 1556 1557 1557 1557 1557 1557
1509 1514 1520 1530 1534 1545 1545 1533 1505 1503 1500 1499 1499 1499 1500 1501 1503 1506 1509 1512 1515 1518 1522 1525 1528 1531 1534 1536 1538 1540 1543 1545 1547 1548 1549 1550 1551 1552 1553 1554 1555 1556 1556 1557 1557 1557 1558 1558 1558
1502 1508 1517 1531 1533 1534 1539 1529 1497 1497 1496 1497 1497 1498 1499 1500 1502 1505 1508 1511 1514 1517 1520 1523 1527 1529 1532 1535 1537 1539 1542 1544 1546 1547 1549 1550 1551 1552 1553 1554 1555 1556 1557 1557 1558 1558 1558 1558 1559